Year,Month,Day,Hour,Minute,Value (Times are PST for temperature in C)
2013,02,22,00,00,4.70
2013,02,22,00,01,4.70
2013,02,22,00,02,4.70
2013,02,22,00,03,4.60
2013,02,22,00,04,4.70
2013,02,22,00,05,4.60
2013,02,22,00,06,4.60
2013,02,22,00,07,4.60
2013,02,22,00,08,4.60
2013,02,22,00,09,4.60
2013,02,22,00,10,4.60
2013,02,22,00,11,4.60
2013,02,22,00,12,4.50
2013,02,22,00,13,4.50
2013,02,22,00,14,4.50
2013,02,22,00,15,4.50
2013,02,22,00,16,4.40
2013,02,22,00,17,4.40
2013,02,22,00,18,4.40
2013,02,22,00,19,4.40
2013,02,22,00,20,4.40
2013,02,22,00,21,4.40
2013,02,22,00,22,4.40
2013,02,22,00,23,4.40
2013,02,22,00,24,4.40
2013,02,22,00,25,4.30
2013,02,22,00,26,4.30
2013,02,22,00,27,4.30
2013,02,22,00,28,4.30
2013,02,22,00,29,4.30
2013,02,22,00,30,4.30
2013,02,22,00,31,4.30
2013,02,22,00,32,4.30
2013,02,22,00,33,4.30
2013,02,22,00,34,4.30
2013,02,22,00,35,4.30
2013,02,22,00,36,4.30
2013,02,22,00,37,4.30
2013,02,22,00,38,4.30
2013,02,22,00,39,4.30
2013,02,22,00,40,4.30
2013,02,22,00,41,4.40
2013,02,22,00,42,4.40
2013,02,22,00,43,4.40
2013,02,22,00,44,4.30
2013,02,22,00,45,4.30
2013,02,22,00,46,4.30
2013,02,22,00,47,4.30
2013,02,22,00,48,4.30
2013,02,22,00,49,4.30
2013,02,22,00,50,4.30
2013,02,22,00,51,4.30
2013,02,22,00,52,4.30
2013,02,22,00,53,4.30
2013,02,22,00,54,4.30
2013,02,22,00,55,4.30
2013,02,22,00,56,4.30
2013,02,22,00,57,4.40
2013,02,22,00,58,4.40
2013,02,22,00,59,4.30
2013,02,22,01,00,4.30
2013,02,22,01,01,4.30
2013,02,22,01,02,4.40
2013,02,22,01,03,4.30
2013,02,22,01,04,4.40
2013,02,22,01,05,4.40
2013,02,22,01,06,4.40
2013,02,22,01,07,4.40
2013,02,22,01,08,4.40
2013,02,22,01,09,4.40
2013,02,22,01,10,4.40
2013,02,22,01,11,4.40
2013,02,22,01,12,4.40
2013,02,22,01,13,4.40
2013,02,22,01,14,4.40
2013,02,22,01,15,4.40
2013,02,22,01,16,4.40
2013,02,22,01,17,4.40
2013,02,22,01,18,4.40
2013,02,22,01,19,4.40
2013,02,22,01,20,4.40
2013,02,22,01,21,4.40
2013,02,22,01,22,4.40
2013,02,22,01,23,4.40
2013,02,22,01,24,4.40
2013,02,22,01,25,4.40
2013,02,22,01,26,4.40
2013,02,22,01,27,4.40
2013,02,22,01,28,4.40
2013,02,22,01,29,4.40
2013,02,22,01,30,4.40
2013,02,22,01,31,4.30
2013,02,22,01,32,4.30
2013,02,22,01,33,4.30
2013,02,22,01,34,4.30
2013,02,22,01,35,4.30
2013,02,22,01,36,4.30
2013,02,22,01,37,4.30
2013,02,22,01,38,4.30
2013,02,22,01,39,4.30
2013,02,22,01,40,4.30
2013,02,22,01,41,4.30
2013,02,22,01,42,4.30
2013,02,22,01,43,4.30
2013,02,22,01,44,4.30
2013,02,22,01,45,4.40
2013,02,22,01,46,4.40
2013,02,22,01,47,4.40
2013,02,22,01,48,4.40
2013,02,22,01,49,4.40
2013,02,22,01,50,4.40
2013,02,22,01,51,4.40
2013,02,22,01,52,4.40
2013,02,22,01,53,4.40
2013,02,22,01,54,4.40
2013,02,22,01,55,4.40
2013,02,22,01,56,4.40
2013,02,22,01,57,4.40
2013,02,22,01,58,4.40
2013,02,22,01,59,4.40
2013,02,22,02,00,4.40
2013,02,22,02,01,4.40
2013,02,22,02,02,4.40
2013,02,22,02,03,4.40
2013,02,22,02,04,4.40
2013,02,22,02,05,4.40
2013,02,22,02,06,4.40
2013,02,22,02,07,4.40
2013,02,22,02,08,4.40
2013,02,22,02,09,4.40
2013,02,22,02,10,4.40
2013,02,22,02,11,4.40
2013,02,22,02,12,4.40
2013,02,22,02,13,4.40
2013,02,22,02,14,4.40
2013,02,22,02,15,4.40
2013,02,22,02,16,4.40
2013,02,22,02,17,4.40
2013,02,22,02,18,4.40
2013,02,22,02,19,4.40
2013,02,22,02,20,4.40
2013,02,22,02,21,4.40
2013,02,22,02,22,4.40
2013,02,22,02,23,4.40
2013,02,22,02,24,4.40
2013,02,22,02,25,4.40
2013,02,22,02,26,4.40
2013,02,22,02,27,4.40
2013,02,22,02,28,4.40
2013,02,22,02,29,4.40
2013,02,22,02,30,4.40
2013,02,22,02,31,4.40
2013,02,22,02,32,4.40
2013,02,22,02,33,4.40
2013,02,22,02,34,4.40
2013,02,22,02,35,4.40
2013,02,22,02,36,4.40
2013,02,22,02,37,4.40
2013,02,22,02,38,4.40
2013,02,22,02,39,4.40
2013,02,22,02,40,4.40
2013,02,22,02,41,4.30
2013,02,22,02,42,4.30
2013,02,22,02,43,4.30
2013,02,22,02,44,4.30
2013,02,22,02,45,4.30
2013,02,22,02,46,4.30
2013,02,22,02,47,4.30
2013,02,22,02,48,4.30
2013,02,22,02,49,4.30
2013,02,22,02,50,4.30
2013,02,22,02,51,4.30
2013,02,22,02,52,4.30
2013,02,22,02,53,4.30
2013,02,22,02,54,4.30
2013,02,22,02,55,4.30
2013,02,22,02,56,4.30
2013,02,22,02,57,4.30
2013,02,22,02,58,4.30
2013,02,22,02,59,4.30
2013,02,22,03,00,4.30
2013,02,22,03,01,4.30
2013,02,22,03,02,4.30
2013,02,22,03,03,4.30
2013,02,22,03,04,4.30
2013,02,22,03,05,4.30
2013,02,22,03,06,4.30
2013,02,22,03,07,4.30
2013,02,22,03,08,4.30
2013,02,22,03,09,4.30
2013,02,22,03,10,4.30
2013,02,22,03,11,4.30
2013,02,22,03,12,4.30
2013,02,22,03,13,4.30
2013,02,22,03,14,4.30
2013,02,22,03,15,4.30
2013,02,22,03,16,4.40
2013,02,22,03,17,4.40
2013,02,22,03,18,4.40
2013,02,22,03,19,4.40
2013,02,22,03,20,4.40
2013,02,22,03,21,4.40
2013,02,22,03,22,4.40
2013,02,22,03,23,4.40
2013,02,22,03,24,4.40
2013,02,22,03,25,4.40
2013,02,22,03,26,4.40
2013,02,22,03,27,4.40
2013,02,22,03,28,4.30
2013,02,22,03,29,4.30
2013,02,22,03,30,4.30
2013,02,22,03,31,4.30
2013,02,22,03,32,4.30
2013,02,22,03,33,4.30
2013,02,22,03,34,4.30
2013,02,22,03,35,4.30
2013,02,22,03,36,4.30
2013,02,22,03,37,4.30
2013,02,22,03,38,4.30
2013,02,22,03,39,4.30
2013,02,22,03,40,4.30
2013,02,22,03,41,4.30
2013,02,22,03,42,4.30
2013,02,22,03,43,4.30
2013,02,22,03,44,4.30
2013,02,22,03,45,4.30
2013,02,22,03,46,4.30
2013,02,22,03,47,4.30
2013,02,22,03,48,4.30
2013,02,22,03,49,4.40
2013,02,22,03,50,4.40
2013,02,22,03,51,4.40
2013,02,22,03,52,4.40
2013,02,22,03,53,4.40
2013,02,22,03,54,4.40
2013,02,22,03,55,4.40
2013,02,22,03,56,4.40
2013,02,22,03,57,4.40
2013,02,22,03,58,4.40
2013,02,22,03,59,4.40
2013,02,22,04,00,4.40
2013,02,22,04,01,4.40
2013,02,22,04,02,4.40
2013,02,22,04,03,4.40
2013,02,22,04,04,4.50
2013,02,22,04,05,4.50
2013,02,22,04,06,4.50
2013,02,22,04,07,4.60
2013,02,22,04,08,4.60
2013,02,22,04,09,4.60
2013,02,22,04,10,4.60
2013,02,22,04,11,4.60
2013,02,22,04,12,4.60
2013,02,22,04,13,4.70
2013,02,22,04,14,4.70
2013,02,22,04,15,4.70
2013,02,22,04,16,4.70
2013,02,22,04,17,4.70
2013,02,22,04,18,4.70
2013,02,22,04,19,4.70
2013,02,22,04,20,4.70
2013,02,22,04,21,4.70
2013,02,22,04,22,4.70
2013,02,22,04,23,4.70
2013,02,22,04,24,4.70
2013,02,22,04,25,4.70
2013,02,22,04,26,4.70
2013,02,22,04,27,4.70
2013,02,22,04,28,4.70
2013,02,22,04,29,4.70
2013,02,22,04,30,4.70
2013,02,22,04,31,4.70
2013,02,22,04,32,4.70
2013,02,22,04,33,4.70
2013,02,22,04,34,4.60
2013,02,22,04,35,4.60
2013,02,22,04,36,4.60
2013,02,22,04,37,4.60
2013,02,22,04,38,4.60
2013,02,22,04,39,4.60
2013,02,22,04,40,4.60
2013,02,22,04,41,4.50
2013,02,22,04,42,4.50
2013,02,22,04,43,4.50
2013,02,22,04,44,4.50
2013,02,22,04,45,4.50
2013,02,22,04,46,4.50
2013,02,22,04,47,4.40
2013,02,22,04,48,4.40
2013,02,22,04,49,4.40
2013,02,22,04,50,4.40
2013,02,22,04,51,4.40
2013,02,22,04,52,4.40
2013,02,22,04,53,4.40
2013,02,22,04,54,4.40
2013,02,22,04,55,4.40
2013,02,22,04,56,4.40
2013,02,22,04,57,4.40
2013,02,22,04,58,4.40
2013,02,22,04,59,4.40
2013,02,22,05,00,4.40
2013,02,22,05,01,4.40
2013,02,22,05,02,4.40
2013,02,22,05,03,4.40
2013,02,22,05,04,4.40
2013,02,22,05,05,4.40
2013,02,22,05,06,4.40
2013,02,22,05,07,4.40
2013,02,22,05,08,4.40
2013,02,22,05,09,4.40
2013,02,22,05,10,4.40
2013,02,22,05,11,4.40
2013,02,22,05,12,4.40
2013,02,22,05,13,4.50
2013,02,22,05,14,4.40
2013,02,22,05,15,4.40
2013,02,22,05,16,4.40
2013,02,22,05,17,4.40
2013,02,22,05,18,4.40
2013,02,22,05,19,4.40
2013,02,22,05,20,4.40
2013,02,22,05,21,4.40
2013,02,22,05,22,4.50
2013,02,22,05,23,4.50
2013,02,22,05,24,4.50
2013,02,22,05,25,4.50
2013,02,22,05,26,4.50
2013,02,22,05,27,4.50
2013,02,22,05,28,4.50
2013,02,22,05,29,4.50
2013,02,22,05,30,4.50
2013,02,22,05,31,4.50
2013,02,22,05,32,4.60
2013,02,22,05,33,4.60
2013,02,22,05,34,4.60
2013,02,22,05,35,4.60
2013,02,22,05,36,4.50
2013,02,22,05,37,4.60
2013,02,22,05,38,4.50
2013,02,22,05,39,4.60
2013,02,22,05,40,4.50
2013,02,22,05,41,4.60
2013,02,22,05,42,4.60
2013,02,22,05,43,4.60
2013,02,22,05,44,4.60
2013,02,22,05,45,4.70
2013,02,22,05,46,4.70
2013,02,22,05,47,4.70
2013,02,22,05,48,4.70
2013,02,22,05,49,4.70
2013,02,22,05,50,4.70
2013,02,22,05,51,4.70
2013,02,22,05,52,4.70
2013,02,22,05,53,4.70
2013,02,22,05,54,4.70
2013,02,22,05,55,4.70
2013,02,22,05,56,4.70
2013,02,22,05,57,4.70
2013,02,22,05,58,4.70
2013,02,22,05,59,4.70
2013,02,22,06,00,4.70
2013,02,22,06,01,4.70
2013,02,22,06,02,4.70
2013,02,22,06,03,4.70
2013,02,22,06,04,4.70
2013,02,22,06,05,4.70
2013,02,22,06,06,4.70
2013,02,22,06,07,4.70
2013,02,22,06,08,4.70
2013,02,22,06,09,4.70
2013,02,22,06,10,4.70
2013,02,22,06,11,4.70
2013,02,22,06,12,4.70
2013,02,22,06,13,4.70
2013,02,22,06,14,4.70
2013,02,22,06,15,4.70
2013,02,22,06,16,4.70
2013,02,22,06,17,4.70
2013,02,22,06,18,4.80
2013,02,22,06,19,4.80
2013,02,22,06,20,4.80
2013,02,22,06,21,4.80
2013,02,22,06,22,4.80
2013,02,22,06,23,4.80
2013,02,22,06,24,4.90
2013,02,22,06,25,4.90
2013,02,22,06,26,4.90
2013,02,22,06,27,4.90
2013,02,22,06,28,5.00
2013,02,22,06,29,5.00
2013,02,22,06,30,5.00
2013,02,22,06,31,5.10
2013,02,22,06,32,5.10
2013,02,22,06,33,5.10
2013,02,22,06,34,5.10
2013,02,22,06,35,5.20
2013,02,22,06,36,5.20
2013,02,22,06,37,5.20
2013,02,22,06,38,5.20
2013,02,22,06,39,5.20
2013,02,22,06,40,5.20
2013,02,22,06,41,5.20
2013,02,22,06,42,5.20
2013,02,22,06,43,5.20
2013,02,22,06,44,5.30
2013,02,22,06,45,5.30
2013,02,22,06,46,5.30
2013,02,22,06,47,5.30
2013,02,22,06,48,5.30
2013,02,22,06,49,5.30
2013,02,22,06,50,5.30
2013,02,22,06,51,5.30
2013,02,22,06,52,5.30
2013,02,22,06,53,5.30
2013,02,22,06,54,5.40
2013,02,22,06,55,5.40
2013,02,22,06,56,5.40
2013,02,22,06,57,5.40
2013,02,22,06,58,5.40
2013,02,22,06,59,5.40
2013,02,22,07,00,5.40
2013,02,22,07,01,5.40
2013,02,22,07,02,5.40
2013,02,22,07,03,5.40
2013,02,22,07,04,5.40
2013,02,22,07,05,5.40
2013,02,22,07,06,5.40
2013,02,22,07,07,5.40
2013,02,22,07,08,5.40
2013,02,22,07,09,5.40
2013,02,22,07,10,5.40
2013,02,22,07,11,5.50
2013,02,22,07,12,5.50
2013,02,22,07,13,5.50
2013,02,22,07,14,5.50
2013,02,22,07,15,5.50
2013,02,22,07,16,5.40
2013,02,22,07,17,5.40
2013,02,22,07,18,5.40
2013,02,22,07,19,5.40
2013,02,22,07,20,5.50
2013,02,22,07,21,5.50
2013,02,22,07,22,5.50
2013,02,22,07,23,5.50
2013,02,22,07,24,5.60
2013,02,22,07,25,5.60
2013,02,22,07,26,5.60
2013,02,22,07,27,5.60
2013,02,22,07,28,5.60
2013,02,22,07,29,5.60
2013,02,22,07,30,5.60
2013,02,22,07,31,5.60
2013,02,22,07,32,5.60
2013,02,22,07,33,5.60
2013,02,22,07,34,5.60
2013,02,22,07,35,5.60
2013,02,22,07,36,5.60
2013,02,22,07,37,5.60
2013,02,22,07,38,5.60
2013,02,22,07,39,5.60
2013,02,22,07,40,5.70
2013,02,22,07,41,5.60
2013,02,22,07,42,5.60
2013,02,22,07,43,5.60
2013,02,22,07,44,5.60
2013,02,22,07,45,5.60
2013,02,22,07,46,5.60
2013,02,22,07,47,5.60
2013,02,22,07,48,5.60
2013,02,22,07,49,5.70
2013,02,22,07,50,5.60
2013,02,22,07,51,5.60
2013,02,22,07,52,5.60
2013,02,22,07,53,5.70
2013,02,22,07,54,5.70
2013,02,22,07,55,5.70
2013,02,22,07,56,5.70
2013,02,22,07,57,5.70
2013,02,22,07,58,5.70
2013,02,22,07,59,5.70
2013,02,22,08,00,5.70
2013,02,22,08,01,5.70
2013,02,22,08,02,5.70
2013,02,22,08,03,5.80
2013,02,22,08,04,5.80
2013,02,22,08,05,5.80
2013,02,22,08,06,5.80
2013,02,22,08,07,5.80
2013,02,22,08,08,5.80
2013,02,22,08,09,5.80
2013,02,22,08,10,5.80
2013,02,22,08,11,5.80
2013,02,22,08,12,5.80
2013,02,22,08,13,5.80
2013,02,22,08,14,5.90
2013,02,22,08,15,5.90
2013,02,22,08,16,5.90
2013,02,22,08,17,5.90
2013,02,22,08,18,5.90
2013,02,22,08,19,5.90
2013,02,22,08,20,5.90
2013,02,22,08,21,5.90
2013,02,22,08,22,5.90
2013,02,22,08,23,5.90
2013,02,22,08,24,5.90
2013,02,22,08,25,5.90
2013,02,22,08,26,5.90
2013,02,22,08,27,5.90
2013,02,22,08,28,6.00
2013,02,22,08,29,6.00
2013,02,22,08,30,6.00
2013,02,22,08,31,6.00
2013,02,22,08,32,6.00
2013,02,22,08,33,6.10
2013,02,22,08,34,6.10
2013,02,22,08,35,6.10
2013,02,22,08,36,6.10
2013,02,22,08,37,6.10
2013,02,22,08,38,6.10
2013,02,22,08,39,6.10
2013,02,22,08,40,6.10
2013,02,22,08,41,6.10
2013,02,22,08,42,6.10
2013,02,22,08,43,6.20
2013,02,22,08,44,6.20
2013,02,22,08,45,6.20
2013,02,22,08,46,6.20
2013,02,22,08,47,6.20
2013,02,22,08,48,6.20
2013,02,22,08,49,6.20
2013,02,22,08,50,6.20
2013,02,22,08,51,6.20
2013,02,22,08,52,6.30
2013,02,22,08,53,6.30
2013,02,22,08,54,6.30
2013,02,22,08,55,6.30
2013,02,22,08,56,6.30
2013,02,22,08,57,6.30
2013,02,22,08,58,6.40
2013,02,22,09,05,6.50
2013,02,22,09,06,6.50
2013,02,22,09,07,6.50
2013,02,22,09,08,6.60
2013,02,22,09,09,6.60
2013,02,22,09,10,6.60
2013,02,22,09,11,6.60
2013,02,22,09,12,6.60
2013,02,22,09,13,6.60
2013,02,22,09,14,6.60
2013,02,22,09,15,6.60
2013,02,22,09,16,6.60
2013,02,22,09,17,6.60
2013,02,22,09,18,6.60
2013,02,22,09,19,6.60
2013,02,22,09,20,6.70
2013,02,22,09,21,6.70
2013,02,22,09,22,6.70
2013,02,22,09,23,6.70
2013,02,22,09,24,6.70
2013,02,22,09,25,6.70
2013,02,22,09,26,6.70
2013,02,22,09,27,6.70
2013,02,22,09,28,6.70
2013,02,22,09,29,6.70
2013,02,22,09,30,6.70
2013,02,22,09,31,6.70
2013,02,22,09,32,6.70
2013,02,22,09,33,6.70
2013,02,22,09,34,6.70
2013,02,22,09,35,6.70
2013,02,22,09,36,6.70
2013,02,22,09,37,6.70
2013,02,22,09,38,6.70
2013,02,22,09,39,6.60
2013,02,22,09,40,6.60
2013,02,22,09,41,6.60
2013,02,22,09,42,6.60
2013,02,22,09,43,6.60
2013,02,22,09,44,6.70
2013,02,22,09,45,6.70
2013,02,22,09,46,6.70
2013,02,22,09,47,6.70
2013,02,22,09,48,6.70
2013,02,22,09,49,6.70
2013,02,22,09,50,6.70
2013,02,22,09,51,6.70
2013,02,22,09,52,6.70
2013,02,22,09,53,6.70
2013,02,22,09,54,6.70
2013,02,22,09,55,6.70
2013,02,22,09,56,6.70
2013,02,22,09,57,6.70
2013,02,22,09,58,6.70
2013,02,22,09,59,6.70
2013,02,22,10,00,6.70
2013,02,22,10,01,6.70
2013,02,22,10,02,6.70
2013,02,22,10,03,6.70
2013,02,22,10,04,6.70
2013,02,22,10,05,6.70
2013,02,22,10,06,6.70
2013,02,22,10,07,6.70
2013,02,22,10,08,6.70
2013,02,22,10,09,6.70
2013,02,22,10,10,6.70
2013,02,22,10,11,6.70
2013,02,22,10,12,6.70
2013,02,22,10,13,6.70
2013,02,22,10,14,6.70
2013,02,22,10,15,6.80
2013,02,22,10,16,6.80
2013,02,22,10,17,6.80
2013,02,22,10,18,6.80
2013,02,22,10,19,6.80
2013,02,22,10,20,6.80
2013,02,22,10,21,6.90
2013,02,22,10,22,6.90
2013,02,22,10,23,6.90
2013,02,22,10,24,6.90
2013,02,22,10,25,6.90
2013,02,22,10,26,6.90
2013,02,22,10,27,6.90
2013,02,22,10,28,6.90
2013,02,22,10,29,6.90
2013,02,22,10,30,6.90
2013,02,22,10,31,6.90
2013,02,22,10,32,6.90
2013,02,22,10,33,6.80
2013,02,22,10,34,6.80
2013,02,22,10,35,6.70
2013,02,22,10,36,6.70
2013,02,22,10,37,6.70
2013,02,22,10,38,6.60
2013,02,22,10,39,6.60
2013,02,22,10,40,6.50
2013,02,22,10,41,6.50
2013,02,22,10,42,6.40
2013,02,22,10,43,6.40
2013,02,22,10,44,6.40
2013,02,22,10,45,6.40
2013,02,22,10,46,6.40
2013,02,22,10,47,6.30
2013,02,22,10,48,6.30
2013,02,22,10,49,6.30
2013,02,22,10,50,6.30
2013,02,22,10,51,6.30
2013,02,22,10,52,6.30
2013,02,22,10,53,6.30
2013,02,22,10,54,6.30
2013,02,22,10,55,6.30
2013,02,22,10,56,6.30
2013,02,22,10,57,6.30
2013,02,22,10,58,6.30
2013,02,22,10,59,6.40
2013,02,22,11,00,6.40
2013,02,22,11,01,6.40
2013,02,22,11,02,6.40
2013,02,22,11,03,6.40
2013,02,22,11,04,6.40
2013,02,22,11,05,6.40
2013,02,22,11,06,6.40
2013,02,22,11,07,6.40
2013,02,22,11,08,6.40
2013,02,22,11,09,6.40
2013,02,22,11,10,6.50
2013,02,22,11,11,6.50
2013,02,22,11,12,6.50
2013,02,22,11,13,6.50
2013,02,22,11,14,6.60
2013,02,22,11,15,6.60
2013,02,22,11,16,6.60
2013,02,22,11,17,6.60
2013,02,22,11,18,6.60
2013,02,22,11,19,6.60
2013,02,22,11,20,6.60
2013,02,22,11,21,6.60
2013,02,22,11,22,6.60
2013,02,22,11,23,6.60
2013,02,22,11,24,6.60
2013,02,22,11,25,6.60
2013,02,22,11,26,6.60
2013,02,22,11,27,6.60
2013,02,22,11,28,6.60
2013,02,22,11,29,6.60
2013,02,22,11,30,6.50
2013,02,22,11,31,6.50
2013,02,22,11,32,6.50
2013,02,22,11,33,6.50
2013,02,22,11,34,6.40
2013,02,22,11,35,6.40
2013,02,22,11,36,6.40
2013,02,22,11,37,6.40
2013,02,22,11,38,6.40
2013,02,22,11,39,6.40
2013,02,22,11,40,6.30
2013,02,22,11,41,6.30
2013,02,22,11,42,6.30
2013,02,22,11,43,6.30
2013,02,22,11,44,6.30
2013,02,22,11,45,6.30
2013,02,22,11,46,6.30
2013,02,22,11,47,6.30
2013,02,22,11,48,6.30
2013,02,22,11,49,6.30
2013,02,22,11,50,6.30
2013,02,22,11,51,6.30
2013,02,22,11,52,6.30
2013,02,22,11,53,6.30
2013,02,22,11,54,6.30
2013,02,22,11,55,6.40
2013,02,22,11,56,6.40
2013,02,22,11,57,6.40
2013,02,22,11,58,6.40
2013,02,22,11,59,6.50
2013,02,22,12,00,6.50
2013,02,22,12,01,6.60
2013,02,22,12,02,6.60
2013,02,22,12,03,6.60
2013,02,22,12,04,6.60
2013,02,22,12,05,6.70
2013,02,22,12,06,6.70
2013,02,22,12,07,6.70
2013,02,22,12,08,6.80
2013,02,22,12,09,6.80
2013,02,22,12,10,6.80
2013,02,22,12,11,6.90
2013,02,22,12,12,6.90
2013,02,22,12,13,7.00
2013,02,22,12,14,7.10
2013,02,22,12,15,7.10
2013,02,22,12,16,7.20
2013,02,22,12,17,7.20
2013,02,22,12,18,7.20
2013,02,22,12,19,7.30
2013,02,22,12,20,7.30
2013,02,22,12,21,7.30
2013,02,22,14,17,5.10
2013,02,22,14,18,5.10
2013,02,22,14,19,5.10
2013,02,22,14,20,5.20
2013,02,22,14,21,5.20
2013,02,22,14,22,5.20
2013,02,22,14,23,5.20
2013,02,22,14,24,5.20
2013,02,22,14,25,5.20
2013,02,22,14,26,5.30
2013,02,22,14,27,5.30
2013,02,22,14,28,5.30
2013,02,22,14,29,5.40
2013,02,22,14,30,5.50
2013,02,22,14,31,5.60
2013,02,22,14,32,5.70
2013,02,22,14,33,5.80
2013,02,22,14,34,5.90
2013,02,22,14,35,6.00
2013,02,22,14,36,6.00
2013,02,22,14,37,6.10
2013,02,22,14,38,6.20
2013,02,22,14,39,6.20
2013,02,22,14,40,6.20
2013,02,22,14,41,6.20
2013,02,22,14,42,6.20
2013,02,22,14,43,6.20
2013,02,22,14,44,6.10
2013,02,22,14,45,6.10
2013,02,22,14,46,6.10
2013,02,22,14,47,6.00
2013,02,22,14,48,6.00
2013,02,22,14,49,5.90
2013,02,22,14,50,5.90
2013,02,22,14,51,5.90
2013,02,22,14,52,5.90
2013,02,22,14,53,5.90
2013,02,22,14,54,5.90
2013,02,22,14,55,5.80
2013,02,22,14,56,5.80
2013,02,22,14,57,5.80
2013,02,22,14,58,5.80
2013,02,22,14,59,5.80
2013,02,22,15,00,5.80
2013,02,22,15,01,5.80
2013,02,22,15,02,5.80
2013,02,22,15,03,5.80
2013,02,22,15,04,5.80
2013,02,22,15,05,5.80
2013,02,22,15,06,5.80
2013,02,22,15,07,5.80
2013,02,22,15,08,5.80
2013,02,22,15,09,5.80
2013,02,22,15,10,5.80
2013,02,22,15,11,5.80
2013,02,22,15,12,5.80
2013,02,22,15,13,5.80
2013,02,22,15,14,5.80
2013,02,22,15,15,5.90
2013,02,22,15,16,5.90
2013,02,22,15,17,5.90
2013,02,22,15,18,5.90
2013,02,22,15,19,5.90
2013,02,22,15,20,5.90
2013,02,22,15,21,6.00
2013,02,22,15,22,6.00
2013,02,22,15,23,6.00
2013,02,22,15,24,6.00
2013,02,22,15,25,6.00
2013,02,22,15,26,6.00
2013,02,22,15,27,6.00
2013,02,22,15,28,6.00
2013,02,22,15,29,5.90
2013,02,22,15,30,5.90
2013,02,22,15,31,5.90
2013,02,22,15,32,5.90
2013,02,22,15,33,5.90
2013,02,22,15,34,5.90
2013,02,22,15,35,5.90
2013,02,22,15,36,5.90
2013,02,22,15,37,5.90
2013,02,22,15,38,5.90
2013,02,22,15,39,5.80
2013,02,22,15,40,5.80
2013,02,22,15,41,5.70
2013,02,22,15,42,5.70
2013,02,22,15,43,5.60
2013,02,22,15,44,5.50
2013,02,22,15,45,5.40
2013,02,22,15,46,5.30
2013,02,22,15,47,5.30
2013,02,22,15,48,5.20
2013,02,22,15,49,5.20
2013,02,22,15,50,5.10
2013,02,22,15,51,5.10
2013,02,22,15,52,5.10
2013,02,22,15,53,5.00
2013,02,22,15,54,5.00
2013,02,22,15,55,4.90
2013,02,22,15,56,4.80
2013,02,22,15,57,4.70
2013,02,22,15,58,4.60
2013,02,22,15,59,4.60
2013,02,22,16,00,4.50
2013,02,22,16,01,4.50
2013,02,22,16,02,4.40
2013,02,22,16,03,4.40
2013,02,22,16,04,4.40
2013,02,22,16,05,4.30
2013,02,22,16,06,4.30
2013,02,22,16,07,4.30
2013,02,22,16,08,4.30
2013,02,22,16,09,4.30
2013,02,22,16,10,4.30
2013,02,22,16,11,4.30
2013,02,22,16,12,4.40
2013,02,22,16,13,4.40
2013,02,22,16,14,4.50
2013,02,22,16,15,4.50
2013,02,22,16,16,4.60
2013,02,22,16,17,4.60
2013,02,22,16,18,4.60
2013,02,22,16,19,4.70
2013,02,22,16,20,4.70
2013,02,22,16,21,4.70
2013,02,22,16,22,4.70
2013,02,22,16,23,4.80
2013,02,22,16,24,4.80
2013,02,22,16,25,4.80
2013,02,22,16,26,4.80
2013,02,22,16,27,4.80
2013,02,22,16,28,4.90
2013,02,22,16,29,4.90
2013,02,22,16,30,5.00
2013,02,22,16,31,5.00
2013,02,22,16,32,5.00
2013,02,22,16,33,5.00
2013,02,22,16,34,5.10
2013,02,22,16,35,5.10
2013,02,22,16,36,5.10
2013,02,22,16,37,5.10
2013,02,22,16,38,5.10
2013,02,22,16,39,5.10
2013,02,22,16,40,5.10
2013,02,22,16,41,5.10
2013,02,22,16,42,5.10
2013,02,22,16,43,5.10
2013,02,22,16,44,5.10
2013,02,22,16,45,5.10
2013,02,22,16,46,5.10
2013,02,22,16,47,5.00
2013,02,22,16,48,5.00
2013,02,22,16,49,5.00
2013,02,22,16,50,4.90
2013,02,22,16,51,4.90
2013,02,22,16,52,4.90
2013,02,22,16,53,4.90
2013,02,22,16,54,4.90
2013,02,22,16,55,4.90
2013,02,22,16,56,4.90
2013,02,22,16,57,4.90
2013,02,22,16,58,4.90
2013,02,22,16,59,4.90
2013,02,22,17,00,4.90
2013,02,22,17,01,5.00
2013,02,22,17,02,5.00
2013,02,22,17,03,5.00
2013,02,22,17,04,5.00
2013,02,22,17,05,5.00
2013,02,22,17,06,5.00
2013,02,22,17,07,5.00
2013,02,22,17,08,5.00
2013,02,22,17,09,5.00
2013,02,22,17,10,4.90
2013,02,22,17,11,4.90
2013,02,22,17,12,4.90
2013,02,22,17,13,4.90
2013,02,22,17,14,4.90
2013,02,22,17,15,4.80
2013,02,22,17,16,4.80
2013,02,22,17,17,4.80
2013,02,22,17,18,4.80
2013,02,22,17,19,4.80
2013,02,22,17,20,4.80
2013,02,22,17,21,4.80
2013,02,22,17,22,4.80
2013,02,22,17,23,4.80
2013,02,22,17,24,4.70
2013,02,22,17,25,4.70
2013,02,22,17,26,4.80
2013,02,22,17,27,4.80
2013,02,22,17,28,4.70
2013,02,22,17,29,4.70
2013,02,22,17,30,4.60
2013,02,22,17,31,4.50
2013,02,22,17,32,4.30
2013,02,22,17,33,4.20
2013,02,22,17,34,4.00
2013,02,22,17,35,3.90
2013,02,22,17,36,3.80
2013,02,22,17,37,3.70
2013,02,22,17,38,3.60
2013,02,22,17,39,3.50
2013,02,22,17,40,3.50
2013,02,22,17,41,3.40
2013,02,22,17,42,3.30
2013,02,22,17,43,3.30
2013,02,22,17,44,3.30
2013,02,22,17,45,3.30
2013,02,22,17,46,3.30
2013,02,22,17,47,3.20
2013,02,22,17,48,3.20
2013,02,22,17,49,3.20
2013,02,22,17,50,3.20
2013,02,22,17,51,3.20
2013,02,22,17,52,3.20
2013,02,22,17,53,3.30
2013,02,22,17,54,3.30
2013,02,22,17,55,3.30
2013,02,22,17,56,3.30
2013,02,22,17,57,3.30
2013,02,22,17,58,3.30
2013,02,22,17,59,3.40
2013,02,22,18,00,3.50
2013,02,22,18,01,3.60
2013,02,22,18,02,3.60
2013,02,22,18,03,3.60
2013,02,22,18,04,3.60
2013,02,22,18,05,3.60
2013,02,22,18,06,3.60
2013,02,22,18,07,3.60
2013,02,22,18,08,3.60
2013,02,22,18,09,3.70
2013,02,22,18,10,3.70
2013,02,22,18,11,3.60
2013,02,22,18,12,3.60
2013,02,22,18,13,3.50
2013,02,22,18,14,3.40
2013,02,22,18,15,3.30
2013,02,22,18,16,3.20
2013,02,22,18,17,3.20
2013,02,22,18,18,3.10
2013,02,22,18,19,3.10
2013,02,22,18,20,3.10
2013,02,22,18,21,3.10
2013,02,22,18,22,3.10
2013,02,22,18,23,3.10
2013,02,22,18,24,3.10
2013,02,22,18,25,3.00
2013,02,22,18,26,3.10
2013,02,22,18,27,3.10
2013,02,22,18,28,3.10
2013,02,22,18,29,3.10
2013,02,22,18,30,3.20
2013,02,22,18,31,3.20
2013,02,22,18,32,3.20
2013,02,22,18,33,3.20
2013,02,22,18,34,3.20
2013,02,22,18,35,3.20
2013,02,22,18,36,3.20
2013,02,22,18,37,3.20
2013,02,22,18,38,3.20
2013,02,22,18,39,3.20
2013,02,22,18,40,3.20
2013,02,22,18,41,3.10
2013,02,22,18,42,3.10
2013,02,22,18,43,3.10
2013,02,22,18,44,3.10
2013,02,22,18,45,3.10
2013,02,22,18,46,3.10
2013,02,22,18,47,3.10
2013,02,22,18,48,3.10
2013,02,22,18,49,3.10
2013,02,22,18,50,3.00
2013,02,22,18,51,3.00
2013,02,22,18,52,3.00
2013,02,22,18,53,3.00
2013,02,22,18,54,3.00
2013,02,22,18,55,2.90
2013,02,22,18,56,2.90
2013,02,22,18,57,2.90
2013,02,22,18,58,2.90
2013,02,22,18,59,2.90
2013,02,22,19,00,2.90
2013,02,22,19,01,2.90
2013,02,22,19,02,2.90
2013,02,22,19,03,2.90
2013,02,22,19,04,3.00
2013,02,22,19,05,3.00
2013,02,22,19,06,3.00
2013,02,22,19,07,3.00
2013,02,22,19,08,3.00
2013,02,22,19,09,3.00
2013,02,22,19,10,3.10
2013,02,22,19,11,3.10
2013,02,22,19,12,3.10
2013,02,22,19,13,3.10
2013,02,22,19,14,3.10
2013,02,22,19,15,3.20
2013,02,22,19,16,3.20
2013,02,22,19,17,3.20
2013,02,22,19,18,3.20
2013,02,22,19,19,3.20
2013,02,22,19,20,3.20
2013,02,22,19,21,3.20
2013,02,22,19,22,3.20
2013,02,22,19,23,3.20
2013,02,22,19,24,3.20
2013,02,22,19,25,3.20
2013,02,22,19,26,3.20
2013,02,22,19,27,3.20
2013,02,22,19,28,3.30
2013,02,22,19,29,3.30
2013,02,22,19,30,3.30
2013,02,22,19,31,3.30
2013,02,22,19,32,3.30
2013,02,22,19,33,3.30
2013,02,22,19,34,3.30
2013,02,22,19,35,3.30
2013,02,22,19,36,3.30
2013,02,22,19,37,3.30
2013,02,22,19,38,3.30
2013,02,22,19,39,3.30
2013,02,22,19,40,3.30
2013,02,22,19,41,3.20
2013,02,22,19,42,3.20
2013,02,22,19,43,3.20
2013,02,22,19,44,3.20
2013,02,22,19,45,3.10
2013,02,22,19,46,3.10
2013,02,22,19,47,3.10
2013,02,22,19,48,3.10
2013,02,22,19,49,3.10
2013,02,22,19,50,3.00
2013,02,22,19,51,3.00
2013,02,22,19,52,3.00
2013,02,22,19,53,2.90
2013,02,22,19,54,2.90
2013,02,22,19,55,2.90
2013,02,22,19,56,2.90
2013,02,22,19,57,2.90
2013,02,22,19,58,2.90
2013,02,22,19,59,2.90
2013,02,22,20,00,2.90
2013,02,22,20,01,2.90
2013,02,22,20,02,2.90
2013,02,22,20,03,2.90
2013,02,22,20,04,2.90
2013,02,22,20,05,2.90
2013,02,22,20,06,2.90
2013,02,22,20,07,2.90